TIME,DELAY(SENSOR),PRES,T(CTD),SAL,OXYGEN,RAWTEMP,T(OPTODE),TCPHASE,FLUOR,BETA(BETA700),BETA(BETA412),BETA(BETA440),CDOM,C(CSC),ED(ED411.90),ED(ED443.80),ED(ED489.40),ED(ED554.70),LU(LU412.20),LU(LU443.80),LU(LU489.40),LU(LU555.00),COMP,TILTX,TILTX(TILTY),CHECK
1367338422,5807,496.8399963378906000,13.7313995361328120,35.7853012084960940,168.9138031005859400,296.9426879882812500,13.7263298034667970,36.6845893859863300,52,103,98,80,73,11030,2146960100,2147515392,2147279021,2147481179,2147082468,2146944731,2147677860,2147123958,2722,-1,8,50276
1367338534,5805,485.7500000000000000,13.9483995437622070,35.8232994079589840,177.0205993652343800,289.0307006835937500,13.9650802612304690,35.9904899597168000,51,101,97,80,72,11034,2146962468,2147514386,2147279286,2147477952,2147083200,2146949174,2147676708,2147125604,3088,-1,8,40491
1367338644,5804,474.6700134277344000,14.0621004104614260,35.8492012023925800,183.9382019042968800,285.5888061523437500,14.0689096450805660,35.4717292785644500,51,101,95,81,72,11029,2146957147,2147515520,2147277293,2147476635,2147084672,2146948114,2147676205,2147122459,3412,-1,8,52384
1367338754,5806,463.9400024414062500,14.2538995742797850,35.8736000061035160,183.1248931884765600,278.0856933593750000,14.2952098846435550,35.4128990173339840,51,103,96,81,71,11032,2146960420,2147516114,2147274468,2147475154,2147084736,2146946340,2147672822,2147123666,2894,-1,9,59966
1367338866,5805,453.4400024414062500,14.7004003524780270,35.9497985839843750,188.5278015136718800,263.8080139160156000,14.7256498336792000,34.8472404479980500,51,102,96,80,70,11034,2146955446,2147518692,2147277138,2147472109,2147080768,2146946240,2147672795,2147123593,3444,-1,8,22290
1367338987,5808,442.7600097656250000,15.0692996978759770,36.0117988586425800,189.7736968994140600,253.0050964355468800,15.0512199401855470,34.6087417602539060,50,102,98,79,71,11035,2146956708,2147518838,2147274998,2147471469,2147085613,2146949568,2147667584,2147125476,2693,-1,8,29665
1367339121,5806,431.9100036621094000,15.2096996307373050,36.0341987609863300,184.5818023681640600,247.9848022460937500,15.2025003433227540,34.8688507080078100,51,106,96,79,70,11029,2146958546,2147518912,2147271533,2147468736,2147083913,2146951881,2147665426,2147125787,1534,-1,8,59281
1367339275,5806,420.7000122070312500,15.7651996612548830,36.1301994323730500,189.9736022949218800,229.8780059814453000,15.7480401992797850,34.2578887939453100,51,104,98,80,71,11030,2146959625,2147520192,2147272969,2147469184,2147082706,2146951478,2147660196,2147125988,1138,-1,8,39994
1367339451,5803,407.9299926757812500,16.1580009460449220,36.1986999511718750,194.2631988525390600,216.4019927978515600,16.1540603637695300,33.7956809997558600,52,105,97,80,70,11032,2146958226,2147517805,2147271588,2147466916,2147082660,2146947620,2147659684,2147117449,816,-1,8,16836
1367339565,5804,397.2900085449219000,16.4778003692626950,36.2657012939453100,203.1864013671875000,206.0585937500000000,16.4657402038574220,33.1158790588378900,51,101,95,81,70,11038,2146958116,2147514797,2147270930,2147463021,2147082422,2146952585,2147663981,2147122953,3295,-2,8,13177
1367339675,5806,385.8099975585937500,16.6007995605468750,36.2905006408691400,211.2360992431640600,201.7597961425781200,16.5953006744384770,32.5989494323730500,51,101,97,79,69,11031,2146960082,2147512521,2147269805,2147462994,2147081517,2146955309,2147655771,2147125485,3412,-1,8,16538
1367339776,5805,374.9500122070312500,16.7816009521484380,36.3264007568359400,213.5238952636718800,195.2700042724609400,16.7909107208251950,32.3823585510253900,50,99,95,81,68,11037,2146959524,2147516836,2147270756,2147460992,2147081152,2146947794,2147658596,2147121746,282,-1,8,31464
1367339875,5806,364.1499938964844000,17.0641994476318360,36.3767013549804700,217.1085968017578000,186.4649047851562500,17.0563697814941400,32.0663414001464840,50,100,96,80,68,11039,2146957741,2147512091,2147267766,2147457782,2147079780,2146953115,2147655533,2147123099,615,-1,8,40715
1367339985,5806,352.3399963378906000,17.2828998565673830,36.4193992614746100,221.4107971191406200,178.8128967285156200,17.2871398925781250,31.7339496612548830,50,100,96,80,67,11034,2146956507,2147518089,2147269293,2147455396,2147083419,2146953600,2147657709,2147118564,467,-1,8,48852
1367340103,5803,341.2600097656250000,17.4295005798339840,36.4444999694824200,222.1179046630859400,173.6515960693359400,17.4428291320800780,31.6266193389892580,51,102,96,79,67,11032,2146958354,2147513142,2147269440,2147455908,2147080045,2146957842,2147652653,2147124416,3501,-1,8,49573
1367340235,5804,331.0400085449219000,17.5935001373291000,36.4768981933593750,225.7279968261718800,168.9147033691406200,17.5857601165771500,31.3767890930175780,50,101,96,79,68,11036,2146957787,2147516690,2147267666,2147455561,2147079817,2146956589,2147655113,2147128155,2938,-2,9,50563
1367340391,5802,319.7399902343750000,17.7296009063720700,36.4989013671875000,225.6315002441406200,164.4001007080078000,17.7220096588134770,31.3205108642578120,50,101,96,81,68,11034,2146958957,2147515565,2147269321,2147453321,2147079076,2146955090,2147653924,2147128356,3457,-2,8,46561
1367340545,5808,309.2099914550781000,17.9015998840332030,36.5290985107421900,228.0758972167968800,158.7321929931640600,17.8931102752685550,31.1204299926757800,51,104,96,81,67,11027,2146957120,2147514806,2147264018,2147455012,2147080466,2146958272,2147654473,2147127305,2997,-2,9,516
1367340721,5808,295.3999938964844000,18.0310993194580080,36.5439987182617200,227.2176055908203000,153.7906951904297000,18.0423393249511720,31.0968608856201170,50,107,97,81,68,11026,2146954688,2147516626,2147267849,2147449846,2147082861,2146956498,2147655460,2147130112,2650,-1,9,59618
1367340842,5804,284.1000061035156000,18.1618003845214840,36.5577011108398440,225.4929046630859400,149.9562072753906200,18.1581592559814450,31.1319999694824220,50,107,97,81,67,11022,2146958729,2147512960,2147264704,2147451090,2147082779,2146965952,2147654601,2147126546,2055,-1,8,6483
1367340965,5803,272.5700073242187500,18.3204002380371100,36.5735015869140600,224.1360931396484400,144.9456939697265600,18.3095607757568360,31.1334800720214840,50,105,96,81,68,11039,2146957184,2147514413,2147265572,2147452169,2147076726,2146960749,2147656868,2147127177,2294,-1,8,4023
1367341086,5802,261.2200012207031000,18.4673004150390620,36.5872993469238300,222.3688049316406200,139.9561004638672000,18.4603691101074220,31.1567192077636720,50,112,97,81,68,11032,2146954276,2147515867,2147263515,2147449362,2147080557,2146963008,2147657773,2147130093,2189,-1,8,51340
1367341196,5806,250.5200042724609400,18.6513004302978500,36.5973014831543000,221.3547973632812500,133.6531982421875000,18.6509609222412100,31.1238498687744140,51,107,96,82,68,11034,2146953115,2147517924,2147263140,2147448960,2147082651,2146969874,2147660022,2147128630,1916,-1,8,56803
1367341319,5805,238.8800048828125000,18.9118003845214840,36.6025009155273440,221.0404968261718800,125.0246963500976600,18.9120407104492200,31.0248298645019530,50,114,98,81,67,11030,2146955556,2147516297,2147263890,2147452635,2147080082,2146971602,2147664475,2147130532,2001,-2,8,54215
1367341440,5803,228.0200042724609400,19.2224998474121100,36.6241989135742200,223.3114013671875000,114.6783981323242200,19.2253494262695300,30.7709598541259770,51,110,98,83,66,11030,2146958208,2147515986,2147263990,2147448704,2147078180,2146976566,2147673152,2147128886,1320,-1,8,13252
1367341561,5807,217.7400054931640600,19.4032001495361330,36.6049995422363300,237.3397979736328000,109.1958007812500000,19.3914909362792970,30.0135307312011720,51,119,100,83,66,11019,2146956589,2147515556,2147264301,2147446784,2147075227,2146981568,2147679542,2147130368,795,-1,8,55026
1367341706,5807,206.1999969482422000,19.5792007446289060,36.6246986389160160,245.7241973876953000,103.0849990844726600,19.5767898559570300,29.5481491088867200,53,121,98,84,64,11012,2146954880,2147512219,2147264822,2147444928,2147080192,2146991725,2147692077,2147130322,79,-1,8,21877
1367341816,5803,198.0200042724609400,19.7401008605957030,36.6439018249511700,249.7144012451172000,97.9370574951171900,19.7329807281494140,29.3039894104003900,62,121,101,86,63,11001,2146955062,2147516141,2147266121,2147441627,2147077988,2146999232,2147705152,2147132397,3022,-2,8,8717
1367341871,5804,194.1300048828125000,19.7772998809814450,36.6441993713378900,252.4261932373047000,96.5894012451171900,19.7738800048828120,29.1677207946777340,69,125,102,86,63,10991,2146954715,2147519533,2147264786,2147444059,2147084352,2147002532,2147709156,2147132534,2428,-1,9,26790
1367341946,5809,189.1799926757812500,19.8269004821777340,36.6411018371582000,253.5207977294922000,95.0420989990234400,19.8208503723144530,29.1005096435546880,82,126,102,87,63,10984,2146957686,2147516205,2147265792,2147443529,2147085504,2147007725,2147717229,2147133796,1817,-1,8,42770
1367342012,5807,185.3500061035156200,19.8565998077392580,36.6379013061523440,253.9055938720703000,94.1011962890625000,19.8494091033935550,29.0718498229980470,85,129,101,86,64,10982,2146953307,2147518710,2147266139,2147439652,2147089526,2147013019,2147726802,2147133933,1775,-2,9,37812
1367342078,5800,181.5000000000000000,19.8880996704101560,36.6391983032226560,254.4593048095703000,92.9931335449218800,19.8830604553222660,29.0336494445800780,84,124,101,85,64,10985,2146955721,2147518829,2147264009,2147442084,2147088228,2147021220,2147739318,2147135122,1646,-2,9,64556
1367342155,5805,176.8699951171875000,19.9242992401123050,36.6412010192871100,254.8964996337890600,91.1634597778320300,19.9386196136474600,28.9914894104003900,84,122,101,86,64,10987,2146956598,2147514651,2147265536,2147440246,2147091702,2147029549,2147751058,2147135917,1407,-1,8,18408
1367342221,5804,172.8099975585937500,20.0527000427246100,36.6497001647949200,252.0870056152343800,87.4651031494140600,20.0509700775146500,29.0660190582275400,76,119,101,84,65,10989,2146955757,2147517696,2147265444,2147438089,2147094665,2147037056,2147763062,2147136566,1410,-2,9,5278
1367342299,5806,168.7200012207031200,20.2182998657226560,36.6612014770507800,242.0012054443359400,82.0550918579101600,20.2154006958007800,29.4461193084716800,70,114,99,84,65,11003,2146955227,2147516278,2147264228,2147441792,2147096365,2147043273,2147779035,2147136557,1878,-2,9,30410
1367342420,5807,165.1399993896484400,20.3523006439209000,36.6640014648437500,243.6743927001953000,78.0988616943359400,20.3357200622558600,29.3192996978759770,75,120,101,85,64,10994,2146955995,2147518765,2147266880,2147437165,2147104155,2147056365,2147792182,2147140909,1197,-1,9,14480
1367342617,5807,160.9400024414062500,20.4396991729736330,36.6641006469726560,243.8688049316406200,74.8824996948242200,20.4335803985595700,29.2693595886230470,73,118,99,86,64,10988,2146956096,2147513444,2147268937,2147438116,2147107830,2147072594,2147815314,2147138468,1797,-2,9,45893
1367342716,5803,156.7899932861328000,20.4796009063720700,36.6636009216308600,243.4203033447265600,73.5408401489257800,20.4744091033935550,29.2724800109863280,72,118,99,83,65,10990,2146955053,2147515227,2147266459,2147439286,2147113947,2147098258,2147844342,2147143488,1208,-1,9,29621
1367342815,5804,152.9700012207031200,20.4869995117187500,36.6573982238769500,246.4701995849609400,73.1504974365234400,20.4862899780273440,29.1305809020996100,74,119,99,84,65,10988,2146958628,2147519926,2147267008,2147436946,2147118784,2147115172,2147873545,2147142628,1007,-1,9,37631
1367342927,5805,148.9199981689453000,20.5487995147705080,36.6449012756347660,250.5119018554687500,71.0829391479492200,20.5492305755615230,28.9261302947998050,74,120,99,86,63,10985,2146956278,2147521225,2147270866,2147436333,2147137481,2147148498,2147914011,2147145298,991,-1,8,65396
1367343026,5802,144.9499969482422000,20.7954006195068360,36.6441001892089840,252.2227935791015600,62.5707511901855500,20.8085403442382800,28.7441596984863280,77,121,99,85,63,10977,2146958930,2147521581,2147270646,2147435712,2147151972,2147187593,2147962011,2147148836,1546,-1,9,27269
1367343158,5805,141.1900024414062500,21.0699005126953120,36.6333007812500000,250.5758056640625000,54.5174484252929700,21.0541496276855470,28.7136802673339840,81,123,101,85,63,10974,2146959570,2147516196,2147273161,2147436562,2147166811,2147226221,2148012370,2147154386,1771,-2,8,15874
1367343269,5801,136.7299957275390600,21.3731994628906250,36.6099014282226560,251.2303009033203000,44.5929908752441400,21.3572196960449220,28.5606403350830080,82,122,99,84,62,10971,2146957248,2147519981,2147275547,2147432896,2147193801,2147283026,2148091264,2147159131,1682,-2,9,2773
1367343357,5803,132.7400054931640600,21.5802001953125000,36.5900993347168000,251.6600036621093800,37.5836601257324200,21.5715408325195300,28.4541492462158200,84,123,99,85,62,10962,2146960000,2147526253,2147279040,2147435785,2147222957,2147341430,2148158244,2147165723,1339,-2,8,51533
1367343456,5807,129.1300048828125000,21.7742004394531250,36.5820007324218750,250.2068023681640600,31.6588993072509770,21.7528896331787100,28.4426097869873050,91,122,99,85,63,10961,2146960475,2147526308,2147283474,2147434048,2147253622,2147403629,2148233115,2147168740,105,-1,9,50155
1367343580,5807,124.8399963378906200,21.8920001983642580,36.5726013183593750,249.2277069091797000,27.3491096496582030,21.8849105834960940,28.4312992095947270,91,121,99,84,63,10965,2146963721,2147527460,2147285193,2147431936,2147302665,2147500946,2148350710,2147182784,563,-2,8,55137
1367343712,5807,121.2300033569336000,22.1184997558593750,36.5483016967773440,249.2481994628906200,19.6783790588378900,22.1201190948486330,28.3346900939941400,98,127,100,85,63,10956,2146965357,2147527341,2147287972,2147430610,2147349568,2147576768,2148455076,2147189202,2766,-2,9,13634
1367343879,5803,116.7099990844726600,22.4111003875732420,36.4978981018066400,249.7619934082031200,10.5533895492553710,22.4003200531005860,28.1988105773925780,94,127,100,85,62,10946,2146966125,2147537755,2147298221,2147430400,2147439689,2147734436,2148653888,2147204324,2469,-1,9,23637
1367343978,5806,112.3000030517578100,22.4976997375488280,36.4697990417480500,249.7411956787109400,7.1189942359924320,22.5058994293212900,28.1570796966552730,97,123,100,85,62,10951,2146968210,2147541110,2147306276,2147429376,2147538285,2147904000,2148854564,2147220397,1922,-2,9,61616
1367344055,5804,108.9899978637695300,22.6105995178222660,36.4501991271972660,248.9541931152343800,4.1087679862976070,22.5984992980957030,28.1535396575927730,101,123,101,85,63,10957,2146970962,2147542656,2147312228,2147430738,2147612955,2148027574,2148999926,2147231707,1665,-1,9,19838
1367344167,5805,104.6999969482421900,22.6490993499755860,36.4213981628418000,249.0113067626953000,2.6829240322113037,22.6423702239990230,28.1334209442138670,96,125,102,86,61,10951,2146975744,2147547556,2147319881,2147425828,2147740690,2148224265,2149216539,2147253321,1969,-1,9,40083
1367344255,5804,100.8899993896484400,22.7108001708984380,36.4199981689453100,249.6703033447265600,0.7144958972930908,22.7029590606689450,28.0806903839111330,97,127,103,85,61,10946,2146977371,2147555081,2147328146,2147428114,2147864310,2148409581,2149439378,2147269248,1992,-2,8,23150
1367344310,5802,98.7300033569336000,22.7024993896484380,36.4122009277343750,249.9974060058593800,0.4676431119441986,22.7105598449707030,28.0636100769042970,97,126,100,86,61,10935,2146981961,2147556772,2147332443,2147428699,2147940489,2148510582,2149560045,2147284178,1592,-1,9,43267
1367344365,5807,96.4800033569336000,22.7637004852294920,36.4114990234375000,249.8439025878906200,-0.9558408856391907,22.7544002532959000,28.0525608062744140,98,129,101,86,61,10951,2146986176,2147561325,2147335323,2147428882,2148039762,2148656256,2149719689,2147296219,1755,-1,9,63246
1367344420,5806,94.3000030517578100,22.7411994934082030,36.3993988037109400,250.2005004882812500,-0.3698855936527252,22.7363491058349600,28.0444297790527340,95,129,101,86,62,10945,2146989266,2147563684,2147344228,2147427675,2148122523,2148771748,2149861458,2147311890,2076,-1,9,8271
1367344477,5803,92.0800018310546900,22.7558994293212900,36.3937988281250000,250.6584930419922000,-0.9731500744819641,22.7549304962158200,28.0172996520996100,94,131,101,87,61,10940,2146988617,2147566994,2147348973,2147427026,2148222683,2148908690,2150018651,2147326262,2139,-2,9,58023
1367344532,5808,90.0100021362304700,22.7656993865966800,36.3923988342285160,251.1457061767578000,-1.3222839832305908,22.7656803131103500,27.9922599792480470,94,129,103,88,61,10955,2146993536,2147571346,2147355949,2147426962,2148333138,2149062034,2150195675,2147342262,1807,-2,9,62654
1367344587,5805,88.0199966430664000,22.7833003997802730,36.3931999206543000,251.2312011718750000,-1.8176620006561280,22.7809391021728500,27.9824104309082030,96,128,101,85,62,10943,2146999579,2147581412,2147364580,2147430208,2148448950,2149217865,2150377444,2147362249,1353,-2,9,51507
1367344642,5807,85.9700012207031200,22.7943000793457030,36.3949012756347660,251.3842010498047000,-2.1205720901489260,22.7902698516845700,27.9722995758056640,96,129,101,87,62,10940,2147003904,2147585014,2147373238,2147431643,2148587922,2149412516,2150600365,2147386285,1048,-1,9,8199
1367344697,5808,83.8799972534179700,22.8369998931884770,36.3988990783691400,251.1470947265625000,-3.4838678836822510,22.8322696685791000,27.9653701782226560,96,129,101,86,62,10945,2147007972,2147590226,2147386459,2147430555,2148764662,2149648905,2150869412,2147414409,947,-2,9,49587
1367344752,5802,81.7799987792968800,23.0016002655029300,36.3762016296386700,250.2364044189453000,-8.3371276855468750,22.9818706512451170,27.9445095062255860,100,145,102,85,61,10941,2147016841,2147599771,2147397056,2147432018,2148950930,2149910363,2151171483,2147444580,1051,-2,9,28813
1367344831,5807,78.7900009155273400,23.2772998809814450,36.4329986572265600,246.3957061767578000,-16.9408798217773440,23.2474403381347660,28.0039100646972660,121,131,103,87,62,10924,2147026331,2147614281,2147419712,2147429897,2149295131,2150382016,2151744658,2147505179,1270,-2,9,43581
1367344886,5802,76.2799987792968800,23.3526992797851560,36.4135017395019500,245.2505950927734400,-20.4322204589843750,23.3553295135498050,28.0107192993164060,119,129,102,86,63,10929,2147036617,2147626075,2147441554,2147435126,2149606299,2150805732,2152251373,2147563364,1112,-2,9,33148
1367344941,5805,74.1699981689453100,23.5123996734619140,36.4090003967285160,244.4835968017578000,-24.9596500396728500,23.4953498840332030,27.9882907867431640,116,131,100,87,63,10921,2147043977,2147637504,2147459154,2147436809,2149927122,2151235200,2152751616,2147624448,864,-1,9,25188
1367344996,5802,72.3399963378906200,23.5941009521484380,36.3916015625000000,244.9871063232422000,-27.6538906097412100,23.5787391662597660,27.9330005645751950,114,131,103,87,61,10922,2147055524,2147650688,2147478189,2147438784,2150245833,2151652662,2153240502,2147682733,1356,-2,9,23627
1367345051,5803,71.0500030517578100,23.6355991363525400,36.3757019042968750,245.5191955566406200,-29.1839809417724600,23.6261196136474600,27.8908500671386720,111,133,102,87,62,10917,2147063378,2147658496,2147497298,2147437970,2150519040,2151990244,2153623872,2147732150,1222,-2,9,52587
1367345141,5809,68.8499984741211000,23.7360000610351560,36.3658981323242200,245.8784027099609400,-32.5755004882812500,23.7311897277832030,27.8334693908691400,103,132,102,88,62,10930,2147086180,2147685412,2147529325,2147441161,2151105206,2152718582,2154429668,2147828800,966,-1,9,1005
1367345196,5804,66.6100006103515600,23.8094997406005860,36.3597984313964840,246.1107025146484400,-34.7822189331054700,23.7995891571044920,27.7963104248046880,103,131,102,85,63,10928,2147100050,2147703341,2147559488,2147440640,2151591972,2153327030,2155115593,2147921051,1344,-2,9,47294
1367345251,5807,64.4400024414062500,23.8684997558593750,36.3591995239257800,245.1327972412109400,-36.7392387390136700,23.8602905273437500,27.8147697448730470,109,135,100,86,62,10921,2147120740,2147720384,2147588333,2147444818,2152206619,2154048164,2155909531,2148031771,1162,-2,9,19269
1367345306,5808,62.3300018310546900,23.9468994140625000,36.3534011840820300,244.1401062011718800,-39.7547798156738300,23.9538593292236330,27.8209495544433600,110,134,103,86,62,10926,2147141568,2147744310,2147623853,2147452425,2152809389,2154743972,2156669568,2148151058,1244,-2,9,1879
1367345361,5803,60.7099990844726560,24.0303993225097660,36.3288993835449200,243.8350982666015600,-42.1797409057617200,24.0291404724121100,27.8042602539062500,117,131,101,88,63,10913,2147162715,2147764571,2147658002,2147453668,2153410642,2155443382,2157422354,2148268214,1122,-2,9,41256
1367345451,5804,58.4199981689453100,24.1814994812011720,36.3305015563964840,244.1537017822265600,-47.1370506286621100,24.1831798553466800,27.7295894622802730,122,136,102,87,62,10892,2147204333,2147809828,2147725906,2147461659,2154686464,2156947017,2159029952,2148495478,1298,-1,8,2566
1367345506,5803,56.3100013732910160,24.2241992950439450,36.3287010192871100,242.6197967529297000,-49.6357688903808600,24.2608795166015620,27.7660598754882800,125,145,107,88,62,10893,2147247177,2147860242,2147792475,2147469412,2156070244,2158554294,2160724809,2148767524,2112,-1,9,316
1367345648,5804,50.7400016784668000,24.5744991302490230,36.3273010253906250,237.8130035400390600,-58.9782104492187500,24.5517997741699220,27.8643093109130860,147,135,102,89,62,10853,2147369142,2147984530,2147973842,2147498514,2159799579,2162751414,2165087899,2149537627,2588,-2,9,46185
1367345682,5807,49.6500015258789060,24.7194004058837900,36.3084983825683600,238.2010040283203000,-62.1965408325195300,24.6521606445312500,27.8071804046630860,149,131,102,87,63,10849,2147397321,2148011666,2148007744,2147502966,2160813595,2163863689,2166157156,2149754989,2906,-2,9,19468
1367345763,5804,47.5099983215332000,25.0870990753173830,36.2168998718261700,236.2091064453125000,-75.6590499877929700,25.0728092193603500,27.7310009002685550,145,138,100,88,64,10847,2147474898,2148093997,2148114477,2147520384,2163145517,2166419904,2168676964,2150250989,2644,-3,8,37462
1367345820,5802,45.6199989318847660,25.1527004241943360,36.1469001770019500,241.2377929687500000,-77.8039169311523400,25.1399497985839840,27.4812793731689450,126,134,101,86,62,10868,2147538825,2148156873,2148202944,2147534500,2164825179,2168191552,2170381595,2150625874,2046,-2,9,6586
1367346080,5804,43.8199996948242200,25.1520004272460940,36.1473999023437500,258.1012878417969000,-78.2713623046875000,25.1545906066894530,26.7643604278564450,96,130,100,86,63,10889,2147619885,2148230427,2148296539,2147553645,2166772955,2170178898,2172182820,2150969654,1622,-2,9,57060
1367346149,5803,41.8699989318847660,25.1525993347167970,36.1455001831054700,249.1300964355468800,-78.2872924804687500,25.1550903320312500,27.1354999542236330,90,127,100,87,59,10900,2147755209,2148357796,2148441600,2147581485,2170584786,2173967597,2175357449,2151575140,1314,-1,9,46510
1367346206,5807,39.7799987792968750,25.1520996093750000,36.1404991149902340,246.3097991943359400,-78.3174896240234400,25.1560306549072270,27.2550201416015620,89,134,101,85,61,10902,2147916909,2148514697,2148625005,2147613110,2175253778,2178765229,2179561243,2152327643,1004,-2,9,15987
1367346263,5805,37.4500007629394500,25.1509990692138670,36.1343994140625000,245.1587066650390600,-78.2916336059570300,25.1552200317382800,27.3048591613769530,87,122,100,87,62,10901,2148104512,2148691785,2148822601,2147660534,2181049590,2184669833,2184734308,2153433645,741,-1,8,48083
1367346308,5805,35.5999984741210940,25.1718997955322270,36.1237983703613300,246.3551025390625000,-78.9610671997070300,25.1761894226074220,27.2454109191894530,84,125,99,86,62,10905,2148288905,2148859712,2149023817,2147697856,2186774061,2190612224,2189991798,2154506477,544,-1,9,16837
1367346376,5806,32.8300018310546900,25.2092990875244140,36.1142997741699200,262.7069091796875000,-80.1680984497070300,25.2140007019042970,26.5568809509277340,83,124,98,86,62,10901,2148686409,2149251337,2149506185,2147815021,2199100571,2203478692,2201454592,2156948781,690,-2,8,27618